When you browse on this site, cookies collect data to enhance your experience and personalize the content and advertising you see.
Visit our Privacy Policy to learn more. By continuing to use the site, you agree to this use of cookies and data.
  • în România
  • Lista ţărilor
  • Pe 7 zile
  • Temperatura apei
  • Hartă satelitară
  • Meteo pe hartă
  • Widget-uri
  • user-avatar
    Intrare

    Meteo pe oră la Arosa

    Astăzi, 16 Iulie, Marţi

    Timp Temperatura Precipitaţii Vânt Presiune Umiditate
    00:00 +7°C° 0 mm 1 m/s 591 mmHg 97%
    01:00 +7°C° 0 mm 1 m/s 591 mmHg 97%
    02:00 +6°C° 0 mm 1 m/s 591 mmHg 97%
    03:00 +5°C° 0 mm 1 m/s 591 mmHg 97%
    04:00 +5°C° 0 mm 1 m/s 590 mmHg 97%
    05:00 +6°C° 0 mm 1 m/s 591 mmHg 94%
    06:00 +6°C° 0 mm 1 m/s 591 mmHg 91%
    07:00 +7°C° 0 mm 1 m/s 591 mmHg 89%
    08:00 +9°C° 0 mm 1 m/s 592 mmHg 80%
    09:00 +11°C° 0 mm 1 m/s 593 mmHg 71%
    10:00 +12°C° 0 mm 2 m/s 594 mmHg 62%
    11:00 +13°C° 0 mm 2 m/s 594 mmHg 56%
    12:00 +15°C° 0 mm 2 m/s 595 mmHg 50%
    13:00 +16°C° 0 mm 2 m/s 595 mmHg 44%
    14:00 +16°C° 0 mm 2 m/s 595 mmHg 45%
    15:00 +16°C° 0 mm 3 m/s 595 mmHg 46%
    16:00 +16°C° 0 mm 3 m/s 595 mmHg 48%
    17:00 +15°C° 0 mm 2 m/s 595 mmHg 56%
    18:00 +14°C° 0 mm 2 m/s 594 mmHg 64%
    19:00 +13°C° 0 mm 2 m/s 594 mmHg 72%
    20:00 +11°C° 0 mm 1 m/s 593 mmHg 79%
    21:00 +8°C° 0 mm 1 m/s 592 mmHg 87%
    22:00 +5°C° 0 mm 0 m/s 591 mmHg 94%
    23:00 +5°C° 0 mm 0 m/s 591 mmHg 94%

    Mâine, 17 Iulie, Miercuri

    Timp Temperatura Precipitaţii Vânt Presiune Umiditate
    00:00 +5°C° 0 mm 0 m/s 591 mmHg 94%
    01:00 +4°C° 0 mm 0 m/s 591 mmHg 95%
    02:00 +4°C° 0 mm 0 m/s 590 mmHg 94%
    03:00 +4°C° 0 mm 0 m/s 590 mmHg 93%
    04:00 +5°C° 0 mm 1 m/s 590 mmHg 93%
    05:00 +6°C° 0 mm 0 m/s 591 mmHg 87%
    06:00 +8°C° 0 mm 0 m/s 592 mmHg 81%
    07:00 +10°C° 0 mm 0 m/s 592 mmHg 75%
    08:00 +12°C° 0 mm 1 m/s 593 mmHg 68%
    09:00 +14°C° 0 mm 1 m/s 594 mmHg 61%
    10:00 +15°C° 0 mm 1 m/s 594 mmHg 55%
    11:00 +16°C° 0.4 mm 1 m/s 594 mmHg 56%
    12:00 +16°C° 0.4 mm 2 m/s 594 mmHg 57%
    13:00 +16°C° 0.4 mm 2 m/s 594 mmHg 58%
    14:00 +16°C° 0.9 mm 2 m/s 594 mmHg 61%
    15:00 +15°C° 0.9 mm 2 m/s 593 mmHg 64%
    16:00 +15°C° 0.9 mm 2 m/s 593 mmHg 67%
    17:00 +14°C° 1 mm 2 m/s 593 mmHg 69%
    18:00 +13°C° 1 mm 2 m/s 592 mmHg 77%
    19:00 +12°C° 1 mm 2 m/s 592 mmHg 85%
    20:00 +10°C° 0.2 mm 1 m/s 591 mmHg 88%
    21:00 +9°C° 0.2 mm 1 m/s 591 mmHg 91%
    22:00 +7°C° 0.2 mm 1 m/s 590 mmHg 94%
    23:00 +7°C° 0 mm 1 m/s 590 mmHg 95%

    Poimâine, 18 Iulie, Joi

    Timp Temperatura Precipitaţii Vânt Presiune Umiditate
    00:00 +6°C° 0 mm 1 m/s 589 mmHg 95%
    01:00 +6°C° 0 mm 1 m/s 589 mmHg 95%
    02:00 +6°C° 0 mm 1 m/s 589 mmHg 95%
    03:00 +5°C° 0 mm 0 m/s 589 mmHg 95%
    04:00 +5°C° 0 mm 0 m/s 589 mmHg 95%
    05:00 +7°C° 0 mm 1 m/s 589 mmHg 93%
    06:00 +8°C° 0 mm 1 m/s 590 mmHg 91%
    07:00 +9°C° 0 mm 1 m/s 590 mmHg 89%
    08:00 +10°C° 0.3 mm 1 m/s 591 mmHg 85%
    09:00 +11°C° 0.3 mm 1 m/s 591 mmHg 80%
    10:00 +12°C° 0.3 mm 1 m/s 592 mmHg 76%
    11:00 +13°C° 0.7 mm 2 m/s 592 mmHg 75%
    12:00 +13°C° 0.7 mm 2 m/s 592 mmHg 73%
    13:00 +14°C° 0.7 mm 2 m/s 592 mmHg 71%
    14:00 +14°C° 0.5 mm 2 m/s 592 mmHg 72%
    15:00 +14°C° 0.5 mm 2 m/s 592 mmHg 73%
    16:00 +13°C° 0.5 mm 2 m/s 592 mmHg 75%
    17:00 +13°C° 0.4 mm 2 m/s 592 mmHg 79%
    18:00 +12°C° 0.4 mm 2 m/s 592 mmHg 83%
    19:00 +10°C° 0.4 mm 2 m/s 592 mmHg 88%
    20:00 +9°C° 0 mm 1 m/s 591 mmHg 90%
    21:00 +8°C° 0 mm 1 m/s 591 mmHg 93%
    22:00 +6°C° 0 mm 0 m/s 591 mmHg 95%
    23:00 +6°C° 0 mm 0 m/s 591 mmHg 95%

    19 Iulie, Vineri

    Timp Temperatura Precipitaţii Vânt Presiune Umiditate
    00:00 +5°C° 0 mm 0 m/s 590 mmHg 95%
    01:00 +5°C° 0 mm 0 m/s 590 mmHg 95%
    02:00 +5°C° 0 mm 0 m/s 590 mmHg 95%
    03:00 +5°C° 0 mm 0 m/s 590 mmHg 95%
    04:00 +5°C° 0 mm 0 m/s 590 mmHg 94%
    05:00 +6°C° 0 mm 0 m/s 591 mmHg 92%
    06:00 +8°C° 0 mm 1 m/s 591 mmHg 89%
    07:00 +9°C° 0 mm 1 m/s 592 mmHg 87%
    08:00 +11°C° 0 mm 1 m/s 593 mmHg 80%
    09:00 +12°C° 0 mm 1 m/s 593 mmHg 73%
    10:00 +13°C° 0 mm 1 m/s 594 mmHg 66%
    11:00 +14°C° 0 mm 1 m/s 594 mmHg 62%
    12:00 +15°C° 0 mm 1 m/s 595 mmHg 59%
    13:00 +16°C° 0 mm 1 m/s 595 mmHg 56%
    14:00 +16°C° 0 mm 2 m/s 595 mmHg 55%
    15:00 +16°C° 0 mm 2 m/s 595 mmHg 55%
    16:00 +16°C° 0 mm 2 m/s 595 mmHg 54%
    17:00 +15°C° 0 mm 2 m/s 595 mmHg 60%
    18:00 +15°C° 0 mm 2 m/s 595 mmHg 66%
    19:00 +14°C° 0 mm 2 m/s 595 mmHg 72%
    20:00 +12°C° 0 mm 1 m/s 594 mmHg 79%
    21:00 +10°C° 0 mm 1 m/s 593 mmHg 86%
    22:00 +7°C° 0 mm 0 m/s 593 mmHg 94%
    23:00 +7°C° 0 mm 0 m/s 593 mmHg 93%

    20 Iulie, Sâmbătă

    Timp Temperatura Precipitaţii Vânt Presiune Umiditate
    00:00 +8°C° 0 mm 1 m/s 593 mmHg 93%
    01:00 +8°C° 0 mm 1 m/s 593 mmHg 92%
    02:00 +8°C° 0 mm 1 m/s 593 mmHg 92%
    03:00 +8°C° 0 mm 1 m/s 593 mmHg 92%
    04:00 +7°C° 0 mm 2 m/s 593 mmHg 92%
    05:00 +8°C° 0 mm 2 m/s 594 mmHg 88%
    06:00 +10°C° 0 mm 2 m/s 594 mmHg 84%
    07:00 +12°C° 0 mm 2 m/s 595 mmHg 80%
    08:00 +14°C° 0 mm 2 m/s 596 mmHg 73%
    09:00 +15°C° 0 mm 2 m/s 597 mmHg 67%
    10:00 +17°C° 0 mm 2 m/s 597 mmHg 60%
    11:00 +17°C° 0.3 mm 2 m/s 597 mmHg 60%
    12:00 +17°C° 0.3 mm 2 m/s 597 mmHg 60%
    13:00 +19°C° 0.3 mm 1 m/s 597 mmHg 60%
    14:00 +17°C° 1.2 mm 2 m/s 597 mmHg 66%
    15:00 +17°C° 1.2 mm 2 m/s 597 mmHg 71%
    16:00 +16°C° 1.2 mm 2 m/s 597 mmHg 77%
    17:00 +15°C° 2.4 mm 2 m/s 596 mmHg 82%
    18:00 +13°C° 2.4 mm 2 m/s 596 mmHg 88%
    19:00 +12°C° 2.4 mm 2 m/s 595 mmHg 94%
    20:00 +10°C° 3.3 mm 2 m/s 595 mmHg 95%
    21:00 +9°C° 3.3 mm 2 m/s 595 mmHg 95%
    22:00 +8°C° 3.3 mm 2 m/s 595 mmHg 95%
    23:00 +8°C° 0.3 mm 2 m/s 595 mmHg 94%

    21 Iulie, Duminică

    Timp Temperatura Precipitaţii Vânt Presiune Umiditate
    00:00 +8°C° 0.3 mm 1 m/s 595 mmHg 93%
    01:00 +8°C° 0.3 mm 1 m/s 595 mmHg 92%
    02:00 +8°C° 0.1 mm 1 m/s 595 mmHg 92%
    03:00 +8°C° 0.1 mm 1 m/s 595 mmHg 91%
    04:00 +8°C° 0.1 mm 1 m/s 594 mmHg 90%
    05:00 +9°C° 0 mm 1 m/s 595 mmHg 87%
    06:00 +10°C° 0 mm 1 m/s 596 mmHg 84%
    07:00 +11°C° 0 mm 1 m/s 596 mmHg 81%
    08:00 +12°C° 0 mm 1 m/s 597 mmHg 73%
    09:00 +14°C° 0 mm 1 m/s 598 mmHg 66%
    10:00 +16°C° 0 mm 2 m/s 599 mmHg 59%
    11:00 +16°C° 0 mm 2 m/s 599 mmHg 54%
    12:00 +17°C° 0 mm 2 m/s 599 mmHg 49%
    13:00 +18°C° 0 mm 2 m/s 599 mmHg 45%
    14:00 +18°C° 0 mm 2 m/s 599 mmHg 46%
    15:00 +18°C° 0 mm 2 m/s 599 mmHg 47%
    16:00 +18°C° 0 mm 3 m/s 599 mmHg 49%
    17:00 +17°C° 0 mm 2 m/s 599 mmHg 57%
    18:00 +16°C° 0 mm 2 m/s 598 mmHg 65%
    19:00 +15°C° 0 mm 2 m/s 598 mmHg 73%
    20:00 +13°C° 0 mm 1 m/s 597 mmHg 79%
    21:00 +11°C° 0 mm 1 m/s 597 mmHg 85%
    22:00 +8°C° 0 mm 0 m/s 596 mmHg 92%
    23:00 +9°C° 0 mm 1 m/s 596 mmHg 91%
    Arată mai mult